When you browse on this site, cookies collect data to enhance your experience and personalize the content and advertising you see.
Visit our Privacy Policy to learn more. By continuing to use the site, you agree to this use of cookies and data.
  • Em Portugal
  • Lista de países
  • Para 7 dias
  • Temperatura da água
  • Mapas de satélite
  • Mapa do tempo
  • Widgets de tempo
  • user-avatar
    Iniciar Sessão

    Previsão horária em Mons

    Hoje, 19 Fevereiro, Terça-feira

    Tempo Temperatura Precipitação Vento Pressão Humidade
    00:00 +7°C° 0.1 mm 3 m/s 760 mmHg 94%
    01:00 +7°C° 0.2 mm 3 m/s 760 mmHg 94%
    02:00 +7°C° 0.2 mm 3 m/s 760 mmHg 94%
    03:00 +7°C° 0.2 mm 3 m/s 760 mmHg 95%
    04:00 +5°C° 0 mm 3 m/s 760 mmHg 95%
    05:00 +5°C° 0 mm 3 m/s 761 mmHg 96%
    06:00 +4°C° 0 mm 3 m/s 761 mmHg 97%
    07:00 +5°C° 0 mm 3 m/s 761 mmHg 93%
    08:00 +7°C° 0 mm 3 m/s 762 mmHg 89%
    09:00 +6°C° 0 mm 4 m/s 762 mmHg 85%
    10:00 +7°C° 0 mm 4 m/s 762 mmHg 80%
    11:00 +8°C° 0 mm 4 m/s 762 mmHg 75%
    12:00 +10°C° 0 mm 4 m/s 762 mmHg 69%
    13:00 +10°C° 0 mm 4 m/s 762 mmHg 69%
    14:00 +11°C° 0 mm 4 m/s 762 mmHg 68%
    15:00 +11°C° 0 mm 4 m/s 762 mmHg 67%
    16:00 +10°C° 0 mm 3 m/s 762 mmHg 70%
    17:00 +9°C° 0 mm 3 m/s 763 mmHg 74%
    18:00 +8°C° 0 mm 2 m/s 763 mmHg 78%
    19:00 +7°C° 0 mm 2 m/s 763 mmHg 81%
    20:00 +6°C° 0 mm 2 m/s 763 mmHg 84%
    21:00 +5°C° 0 mm 2 m/s 763 mmHg 87%
    22:00 +5°C° 0 mm 2 m/s 763 mmHg 86%
    23:00 +5°C° 0 mm 2 m/s 763 mmHg 85%

    Amanhã, 20 Fevereiro, Quarta-feira

    Tempo Temperatura Precipitação Vento Pressão Humidade
    00:00 +4°C° 0 mm 3 m/s 764 mmHg 84%
    01:00 +4°C° 0 mm 3 m/s 763 mmHg 81%
    02:00 +5°C° 0 mm 3 m/s 763 mmHg 78%
    03:00 +5°C° 0 mm 3 m/s 763 mmHg 75%
    04:00 +5°C° 0 mm 3 m/s 763 mmHg 78%
    05:00 +4°C° 0 mm 3 m/s 763 mmHg 81%
    06:00 +4°C° 0 mm 4 m/s 763 mmHg 84%
    07:00 +5°C° 0 mm 4 m/s 764 mmHg 83%
    08:00 +6°C° 0 mm 4 m/s 764 mmHg 82%
    09:00 +6°C° 0 mm 5 m/s 764 mmHg 80%
    10:00 +8°C° 0 mm 5 m/s 764 mmHg 76%
    11:00 +9°C° 0 mm 5 m/s 764 mmHg 71%
    12:00 +10°C° 0 mm 5 m/s 765 mmHg 67%
    13:00 +10°C° 0 mm 5 m/s 764 mmHg 65%
    14:00 +12°C° 0 mm 5 m/s 764 mmHg 64%
    15:00 +12°C° 0 mm 4 m/s 764 mmHg 63%
    16:00 +11°C° 0 mm 4 m/s 764 mmHg 69%
    17:00 +9°C° 0 mm 3 m/s 765 mmHg 75%
    18:00 +8°C° 0 mm 3 m/s 765 mmHg 81%
    19:00 +8°C° 0 mm 3 m/s 765 mmHg 83%
    20:00 +7°C° 0 mm 3 m/s 765 mmHg 84%
    21:00 +7°C° 0 mm 3 m/s 766 mmHg 86%
    22:00 +5°C° 0 mm 3 m/s 766 mmHg 87%
    23:00 +5°C° 0 mm 3 m/s 766 mmHg 88%

    Depois de amanhã, 21 Fevereiro, Quinta-feira

    Tempo Temperatura Precipitação Vento Pressão Humidade
    00:00 +5°C° 0 mm 3 m/s 766 mmHg 89%
    01:00 +5°C° 0 mm 3 m/s 766 mmHg 90%
    02:00 +4°C° 0 mm 3 m/s 767 mmHg 90%
    03:00 +4°C° 0 mm 3 m/s 767 mmHg 91%
    04:00 +4°C° 0 mm 3 m/s 767 mmHg 91%
    05:00 +4°C° 0 mm 3 m/s 767 mmHg 92%
    06:00 +4°C° 0 mm 3 m/s 768 mmHg 92%
    07:00 +5°C° 0 mm 3 m/s 768 mmHg 90%
    08:00 +7°C° 0 mm 3 m/s 768 mmHg 87%
    09:00 +8°C° 0 mm 3 m/s 768 mmHg 85%
    10:00 +9°C° 0 mm 3 m/s 769 mmHg 80%
    11:00 +11°C° 0 mm 3 m/s 769 mmHg 75%
    12:00 +12°C° 0 mm 3 m/s 769 mmHg 70%
    13:00 +13°C° 0 mm 3 m/s 769 mmHg 69%
    14:00 +13°C° 0 mm 3 m/s 769 mmHg 68%
    15:00 +13°C° 0 mm 3 m/s 769 mmHg 67%
    16:00 +13°C° 0 mm 2 m/s 769 mmHg 73%
    17:00 +10°C° 0 mm 2 m/s 770 mmHg 80%
    18:00 +9°C° 0 mm 2 m/s 770 mmHg 86%
    19:00 +9°C° 0 mm 2 m/s 770 mmHg 87%
    20:00 +8°C° 0 mm 2 m/s 771 mmHg 88%
    21:00 +9°C° 0 mm 1 m/s 771 mmHg 88%
    22:00 +9°C° 0 mm 1 m/s 772 mmHg 89%
    23:00 +7°C° 0 mm 2 m/s 772 mmHg 89%

    22 Fevereiro, Sexta-feira

    Tempo Temperatura Precipitação Vento Pressão Humidade
    00:00 +7°C° 0 mm 2 m/s 772 mmHg 89%
    01:00 +7°C° 0 mm 2 m/s 772 mmHg 90%
    02:00 +8°C° 0 mm 1 m/s 772 mmHg 90%
    03:00 +8°C° 0 mm 1 m/s 773 mmHg 90%
    04:00 +7°C° 0 mm 1 m/s 773 mmHg 90%
    05:00 +7°C° 0 mm 1 m/s 773 mmHg 90%
    06:00 +7°C° 0 mm 1 m/s 773 mmHg 90%
    07:00 +8°C° 0 mm 1 m/s 774 mmHg 87%
    08:00 +9°C° 0 mm 1 m/s 774 mmHg 84%
    09:00 +11°C° 0 mm 1 m/s 774 mmHg 81%
    10:00 +12°C° 0 mm 1 m/s 774 mmHg 75%
    11:00 +12°C° 0 mm 0 m/s 774 mmHg 70%
    12:00 +14°C° 0 mm 0 m/s 775 mmHg 65%
    13:00 +15°C° 0 mm 1 m/s 774 mmHg 63%
    14:00 +15°C° 0 mm 1 m/s 774 mmHg 62%
    15:00 +16°C° 0 mm 2 m/s 774 mmHg 61%
    16:00 +14°C° 0 mm 2 m/s 774 mmHg 67%
    17:00 +12°C° 0 mm 2 m/s 774 mmHg 73%
    18:00 +10°C° 0 mm 2 m/s 774 mmHg 79%
    19:00 +9°C° 0 mm 2 m/s 774 mmHg 80%
    20:00 +9°C° 0 mm 3 m/s 774 mmHg 81%
    21:00 +8°C° 0 mm 3 m/s 774 mmHg 82%
    22:00 +8°C° 0 mm 3 m/s 774 mmHg 83%
    23:00 +8°C° 0 mm 2 m/s 774 mmHg 84%

    23 Fevereiro, Sábado

    Tempo Temperatura Precipitação Vento Pressão Humidade
    00:00 +7°C° 0 mm 2 m/s 774 mmHg 85%
    01:00 +7°C° 0 mm 2 m/s 774 mmHg 85%
    02:00 +7°C° 0 mm 2 m/s 774 mmHg 86%
    03:00 +7°C° 0 mm 2 m/s 773 mmHg 86%
    04:00 +7°C° 0 mm 2 m/s 773 mmHg 87%
    05:00 +6°C° 0 mm 2 m/s 773 mmHg 89%
    06:00 +6°C° 0 mm 2 m/s 774 mmHg 90%
    07:00 +7°C° 0 mm 3 m/s 774 mmHg 85%
    08:00 +9°C° 0 mm 3 m/s 774 mmHg 81%
    09:00 +10°C° 0 mm 3 m/s 774 mmHg 77%
    10:00 +11°C° 0 mm 3 m/s 773 mmHg 71%
    11:00 +13°C° 0 mm 3 m/s 773 mmHg 65%
    12:00 +14°C° 0 mm 3 m/s 773 mmHg 59%
    13:00 +16°C° 0 mm 3 m/s 773 mmHg 58%
    14:00 +16°C° 0 mm 3 m/s 772 mmHg 57%
    15:00 +16°C° 0 mm 2 m/s 772 mmHg 56%
    16:00 +15°C° 0 mm 2 m/s 772 mmHg 62%
    17:00 +13°C° 0 mm 2 m/s 772 mmHg 67%
    18:00 +10°C° 0 mm 2 m/s 772 mmHg 72%
    19:00 +10°C° 0 mm 2 m/s 772 mmHg 73%
    20:00 +9°C° 0 mm 2 m/s 772 mmHg 73%
    21:00 +8°C° 0 mm 3 m/s 773 mmHg 74%
    22:00 +7°C° 0 mm 2 m/s 773 mmHg 72%
    23:00 +7°C° 0 mm 2 m/s 773 mmHg 71%

    24 Fevereiro, Domingo

    Tempo Temperatura Precipitação Vento Pressão Humidade
    00:00 +6°C° 0 mm 2 m/s 773 mmHg 70%
    01:00 +6°C° 0 mm 2 m/s 773 mmHg 69%
    02:00 +6°C° 0 mm 2 m/s 773 mmHg 68%
    03:00 +5°C° 0 mm 2 m/s 772 mmHg 67%
    04:00 +6°C° 0 mm 1 m/s 772 mmHg 65%
    05:00 +6°C° 0 mm 1 m/s 772 mmHg 62%
    06:00 +6°C° 0 mm 1 m/s 772 mmHg 60%
    07:00 +7°C° 0 mm 1 m/s 773 mmHg 57%
    08:00 +9°C° 0 mm 1 m/s 773 mmHg 53%
    09:00 +10°C° 0 mm 1 m/s 773 mmHg 50%
    10:00 +12°C° 0 mm 1 m/s 773 mmHg 46%
    11:00 +14°C° 0 mm 1 m/s 773 mmHg 42%
    12:00 +15°C° 0 mm 1 m/s 773 mmHg 39%
    13:00 +16°C° 0 mm 1 m/s 773 mmHg 40%
    14:00 +18°C° 0 mm 1 m/s 773 mmHg 42%
    15:00 +18°C° 0 mm 1 m/s 772 mmHg 44%
    16:00 +15°C° 0 mm 1 m/s 772 mmHg 49%
    17:00 +14°C° 0 mm 2 m/s 773 mmHg 54%
    18:00 +12°C° 0 mm 2 m/s 773 mmHg 59%
    19:00 +10°C° 0 mm 2 m/s 773 mmHg 61%
    20:00 +10°C° 0 mm 2 m/s 773 mmHg 64%
    21:00 +10°C° 0 mm 1 m/s 773 mmHg 66%
    22:00 +10°C° 0 mm 1 m/s 773 mmHg 67%
    23:00 +10°C° 0 mm 1 m/s 773 mmHg 68%
    Mostrar mais